[TLELIST] Archives

 

[list_settings.list_name] Current TLEs

December 26th 2011 PST

HST 1 20580U 90037B 11359.00429875 .00001927 00000-0 13091-3 0 9129 2 20580 028.4697 209.5320 0003107 350.4396 009.6280 15.02029362988364 ISS (ZARYA) 1 25544U 98067A 11359.31655822 .00023205 00000-0 29866-3 0 6938 2 25544 051.6450 279.3867 0024472 203.2360 301.8430 15.58595332750748 CXO 1 25867U 99040B 11359.37500000 -.00001038 00000-0 00000+0 0 6814 2 25867 070.9273 017.8938 8734990 277.6240 357.1375 00.37802811 8494 ____________________________________________________________________ These 2-Line ...Continue Reading

[list_settings.list_name] Current TLEs

December 25th 2011 PST

HST 1 20580U 90037B 11356.08066915 .00001823 00000-0 12318-3 0 9111 2 20580 028.4703 228.6483 0003192 318.8091 041.2227 15.02018610987926 ISS (ZARYA) 1 25544U 98067A 11358.48436594 -.00002741 00000-0 -27867-4 0 6864 2 25544 051.6453 283.5647 0024672 201.3446 311.3160 15.58551007750613 CXO 1 25867U 99040B 11359.37500000 -.00001038 00000-0 00000+0 0 6814 2 25867 070.9273 017.8938 8734990 277.6240 357.1375 00.37802811 8494 ____________________________________________________________________ These 2-Line ...Continue Reading

[list_settings.list_name] Current TLEs

December 24th 2011 PST

HST 1 20580U 90037B 11356.08066915 .00001823 00000-0 12318-3 0 9111 2 20580 028.4703 228.6483 0003192 318.8091 041.2227 15.02018610987926 ISS (ZARYA) 1 25544U 98067A 11357.38435306 .00021740 00000-0 28130-3 0 6795 2 25544 051.6444 289.0827 0024484 195.9567 260.7226 15.58499039750444 CXO 1 25867U 99040B 11356.70833333 -.00001132 00000-0 00000+0 0 6800 2 25867 070.9055 018.0911 8733716 277.5915 354.2219 00.37806942 8482 ____________________________________________________________________ These 2-Line ...Continue Reading

[list_settings.list_name] Current TLEs

December 23rd 2011 PST

HST 1 20580U 90037B 11356.08066915 .00001823 00000-0 12318-3 0 9111 2 20580 028.4703 228.6483 0003192 318.8091 041.2227 15.02018610987926 ISS (ZARYA) 1 25544U 98067A 11356.11871528 .00018731 00000-0 24397-3 0 6714 2 25544 051.6443 295.4325 0024595 191.4511 359.6263 15.58432185750246 CXO 1 25867U 99040B 11356.70833333 -.00001132 00000-0 00000+0 0 6800 2 25867 070.9055 018.0911 8733716 277.5915 354.2219 00.37806942 8482 ____________________________________________________________________ These 2-Line ...Continue Reading

[list_settings.list_name] Current TLEs

December 22nd 2011 PST

HST 1 20580U 90037B 11355.08397458 .00001881 00000-0 12752-3 0 9104 2 20580 028.4703 235.1646 0003202 306.8411 053.1934 15.02015669987776 ISS (ZARYA) 1 25544U 98067A 11355.39578785 .00017579 00000-0 22970-3 0 6659 2 25544 051.6450 299.0592 0024560 188.5232 263.9974 15.58399603750130 CXO 1 25867U 99040B 11356.70833333 -.00001132 00000-0 00000+0 0 6800 2 25867 070.9055 018.0911 8733716 277.5915 354.2219 00.37806942 8482 ____________________________________________________________________ These 2-Line ...Continue Reading

[list_settings.list_name] Current TLEs

December 21st 2011 PST

HST 1 20580U 90037B 11354.02083100 .00001812 00000-0 12240-3 0 9097 2 20580 028.4698 242.1182 0003199 295.6888 064.3414 15.02011716987619 ISS (ZARYA) 1 25544U 98067A 11354.25152733 .00015516 00000-0 20390-3 0 6589 2 25544 051.6452 304.8055 0024784 184.1742 324.5754 15.58353303749952 CXO 1 25867U 99040B 11354.08333333 -.00000967 00000-0 00000+0 0 6797 2 25867 070.8812 018.3074 8730241 277.5594 356.9599 00.37808491 8478 ____________________________________________________________________ These 2-Line ...Continue Reading

[list_settings.list_name] Current TLEs

December 20th 2011 PST

HST 1 20580U 90037B 11353.15702321 .00001699 00000-0 11402-3 0 9084 2 20580 028.4702 247.7663 0003235 288.7920 071.2262 15.02008581987480 ISS (ZARYA) 1 25544U 98067A 11353.41738178 .00015309 00000-0 20148-3 0 6524 2 25544 051.6455 308.9854 0024910 181.1882 324.8719 15.58322576749828 CXO 1 25867U 99040B 11354.08333333 -.00000967 00000-0 00000+0 0 6797 2 25867 070.8812 018.3074 8730241 277.5594 356.9599 00.37808491 8478 ____________________________________________________________________ These 2-Line ...Continue Reading

[list_settings.list_name] Current TLEs

December 19th 2011 PST

HST 1 20580U 90037B 11352.16031821 .00001729 00000-0 11625-3 0 9074 2 20580 028.4711 254.2827 0003318 272.2528 087.7495 15.02005725987330 ISS (ZARYA) 1 25544U 98067A 11352.39191811 .00015580 00000-0 20513-3 0 6445 2 25544 051.6455 314.1285 0025065 177.6083 331.8751 15.58290803749663 CXO 1 25867U 99040B 11354.08333333 -.00000967 00000-0 00000+0 0 6797 2 25867 070.8812 018.3074 8730241 277.5594 356.9599 00.37808491 8478 ____________________________________________________________________ These 2-Line ...Continue Reading

[list_settings.list_name] Current TLEs

December 18th 2011 PST

HST 1 20580U 90037B 11351.16361536 .00002752 00000-0 19247-3 0 9066 2 20580 028.4708 260.8066 0003558 266.5032 093.5016 15.02006301987184 ISS (ZARYA) 1 25544U 98067A 11351.16888946 .00010787 00000-0 14448-3 0 6377 2 25544 051.6452 320.2653 0024794 173.1144 310.8816 15.58245139749474 CXO 1 25867U 99040B 11351.45833333 -.00000679 00000-0 00000+0 0 6789 2 25867 070.8557 018.4925 8726185 277.5583 359.6071 00.37804402 8462 ____________________________________________________________________ These 2-Line ...Continue Reading

[list_settings.list_name] Current TLEs

December 17th 2011 PST

HST 1 20580U 90037B 11350.16690774 .00002963 00000-0 20821-3 0 9057 2 20580 028.4715 267.3191 0003361 256.5974 103.3954 15.02002845987033 ISS (ZARYA) 1 25544U 98067A 11350.46727414 .00016513 00000-0 21748-3 0 6331 2 25544 051.6457 323.7820 0024987 170.5526 335.0094 15.58231813749361 CXO 1 25867U 99040B 11351.45833333 -.00000679 00000-0 00000+0 0 6789 2 25867 070.8557 018.4925 8726185 277.5583 359.6071 00.37804402 8462 ____________________________________________________________________ These 2-Line ...Continue Reading
  • This mailing list is a public mailing list - anyone may join or leave, at any time.
  • This mailing list is announce-only.

International Space Station (ISS) / Hubble Space Telescope (HST) / Chandra X-Ray Observatory Orbital Data via EMAIL

Privacy Policy:

Private list